RH
58 59 58 56 54 53 55 68 85 91 94 95 95 91 85 76 70 67 64 61 60 64 70 74 78 82 83 89 96 99 99 99 93 98 97 98 100 100 100 100 100 99 95
63 61 61 60 61 60 60 64 78 87 91 92 92 88 80 73 68 66 65 66 68 71 75 79 81 86 88 92 99 95 98 99 99 100 100 99 100 100 99 100 100 99 95
64 65 66 66 65 64 65 68 72 76 78 83 83 78 74 71 67 68 69 70 70 71 75 80 84 90 94 93 94 92 93 95 95 99 100 100 100 100 100 100 100 98 95
57 63 70 72 73 74 74 73 72 73 73 75 75 72 70 68 69 69 70 71 73 77 80 85 89 92 88 85 84 84 88 91 94 96 100 100 100 100 100 100 100 98 93
68 63 61 72 76 76 75 75 74 74 74 73 72 72 71 71 70 70 71 74 73 74 83 88 88 86 87 87 89 91 93 97 100 100 100 100 100 100 99 98 97 97 94
71 70 68 65 74 77 78 79 79 78 77 74 72 70 70 70 71 73 76 77 79 80 80 88 90 91 93 94 95 93 89 93 99 100 100 99 98 98 97 96 94 93 87
71 71 70 73 74 78 78 78 78 80 78 77 75 74 74 76 78 80 81 82 84 84 84 88 98 97 96 96 96 96 94 91 94 98 99 98 93 91 91 91 89 83 71
77 78 74 77 79 81 84 81 81 81 80 79 78 77 78 77 80 82 88 98 98 92 89 91 99 99 96 94 90 74 84 74 78 86 87 87 85 87 87 85 80 79 72
92 89 84 84 89 86 84 82 83 83 81 78 78 79 79 81 83 87 98 100 98 93 95 98 99 99 96 93 79 58 51 55 55 56 66 85 84 80 80 76 75 78 83
90 91 86 86 92 93 88 84 83 83 81 82 82 83 84 84 86 89 99 99 99 96 97 99 99 97 93 91 65 47 58 58 60 66 71 76 82 76 66 61 57 60 65
88 86 85 85 92 94 96 91 84 85 86 85 86 85 87 89 89 96 99 98 98 100 99 100 98 97 85 75 79 60 48 46 58 53 49 44 43 56 54 41 38 46 48
96 94 89 86 88 94 99 96 92 90 92 94 97 99 99 99 98 97 99 99 100 97 90 92 94 95 97 85 92 74 52 52 56 65 59 54 46 39 40 43 42 46 44
99 99 100 94 89 93 98 100 99 98 100 100 100 100 99 99 98 99 98 100 99 92 75 88 95 85 66 94 94 88 76 69 58 69 62 49 39 36 42 54 55 54 52
93 94 97 99 97 94 98 100 100 100 100 100 100 100 99 99 97 99 99 99 100 98 60 44 44 45 64 91 91 95 88 78 69 59 53 45 41 39 42 47 56 59 66
90 93 95 97 100 99 96 98 100 99 98 100 100 99 99 100 96 95 98 100 100 98 90 57 61 68 65 74 84 83 87 86 84 79 76 61 46 43 46 50 58 66 70
89 84 88 98 98 100 100 99 99 99 100 100 99 95 92 89 89 91 96 99 100 100 98 79 67 63 70 69 79 80 71 67 67 70 73 70 56 46 47 57 65 70 80
85 89 84 89 96 99 100 100 100 97 100 100 100 99 95 90 94 95 94 96 99 100 99 86 79 69 62 61 66 69 64 55 53 52 53 58 58 52 60 58 63 71 80
90 92 92 89 98 100 100 100 100 100 100 100 99 100 100 99 98 100 99 99 100 100 100 96 90 83 70 59 56 56 54 56 61 62 62 58 55 53 54 58 58 56 68
98 97 96 88 90 99 100 100 100 100 100 100 100 100 100 99 100 99 100 100 100 100 100 100 98 97 80 74 70 70 68 63 63 59 54 54 58 54 49 47 47 55 60
99 99 94 86 89 96 100 100 100 100 100 100 100 100 100 100 100 100 100 100 100 100 100 100 99 99 88 78 73 76 73 68 67 62 53 53 60 60 57 54 54 55 67
100 99 94 85 87 96 100 100 100 100 100 100 100 100 100 100 100 100 100 100 100 100 99 100 99 99 92 79 77 74 71 62 63 59 53 50 57 64 64 62 73 65 58
100 100 100 96 92 97 99 99 100 100 100 100 100 100 100 100 100 100 100 100 99 99 99 100 99 99 96 85 69 69 61 58 57 57 58 58 60 62 63 68 89 71 68
100 100 96 93 91 94 98 99 99 99 100 100 100 100 100 100 100 99 100 99 100 100 100 100 99 94 84 70 62 51 48 48 59 98 97 81 66 67 71 85 97 94 95
100 100 100 100 99 99 99 99 98 99 100 100 100 100 100 100 100 99 99 100 100 100 100 100 96 89 84 80 74 70 78 89 98 99 99 99 95 87 97 98 97 96 96
100 100 99 100 99 98 96 99 100 99 99 100 100 100 100 100 100 100 100 100 100 100 100 100 100 100 100 100 100 99 99 99 99 99 99 98 98 98 97 97 97 96 96
100 99 98 98 99 100 98 98 100 99 100 99 99 100 100 100 99 100 100 100 100 100 100 100 100 100 100 100 100 99 99 98 98 98 98 98 98 99 98 98 97 97 96
Wind_Speed
12 9 6 4 3 3 4 5 6 9 12 15 18 20 19 18 15 14 13 10 9 9 8 8 8 8 8 9 10 11 11 12 10 7 9 12 12 13 12 11 10 9 7
12 9 8 7 4 3 4 5 7 8 11 14 17 18 18 18 16 13 11 10 9 8 7 7 7 8 7 8 9 11 11 12 9 6 6 7 10 12 12 10 9 8 5
13 11 7 5 5 5 4 6 7 9 13 16 18 19 19 17 15 12 10 8 7 6 6 6 7 6 7 6 7 8 9 10 10 8 6 7 9 11 12 11 10 7 4
18 14 11 6 5 5 6 8 10 13 15 18 18 18 17 14 12 11 10 8 5 5 4 3 4 5 5 7 9 10 10 10 10 9 8 8 9 9 12 12 9 8 6
21 19 16 12 7 6 7 8 10 11 13 14 15 15 14 13 12 10 7 5 2 1 4 5 5 5 7 8 9 9 9 10 10 9 7 6 7 7 10 9 9 7 6
23 22 20 15 13 11 10 10 11 13 14 15 14 13 12 11 9 9 8 6 5 4 4 7 8 7 6 7 8 8 9 10 11 10 11 8 11 9 9 9 7 5 3
22 23 22 17 16 16 14 14 13 14 14 15 14 13 13 13 12 11 9 9 8 7 6 5 9 9 8 7 6 5 6 8 9 10 10 10 8 10 9 10 9 6 4
21 21 20 19 16 17 17 19 18 18 18 17 16 15 14 12 12 11 10 9 8 8 8 8 10 10 9 8 7 6 6 5 6 9 10 10 10 9 10 9 9 8 7
19 22 22 20 18 16 21 21 20 19 19 19 18 16 15 14 14 13 12 11 9 8 9 11 12 12 10 9 9 8 7 5 3 2 3 7 8 8 8 9 10 9 5
22 26 23 21 18 17 22 24 23 22 22 18 17 17 15 14 15 15 16 13 11 10 10 11 12 12 11 11 10 10 9 9 8 7 6 6 6 6 7 7 8 9 4
25 26 24 21 18 16 17 23 24 24 21 20 20 18 17 17 16 16 17 16 15 13 14 14 14 13 11 11 11 9 9 8 9 8 7 6 6 7 5 5 7 8 7
24 24 24 21 18 15 15 18 23 24 23 22 20 18 17 17 17 18 18 18 15 15 15 15 15 14 13 13 12 8 8 8 11 10 8 7 7 7 6 5 5 5 5
25 22 23 22 17 13 12 16 20 24 24 21 20 18 20 18 19 18 18 18 17 15 13 14 15 16 14 14 14 10 10 10 11 10 9 8 6 6 8 8 7 5 4
19 19 22 24 20 14 12 14 18 22 21 19 19 19 21 19 21 21 21 20 20 15 14 14 14 15 16 16 15 14 14 13 12 11 9 7 8 9 10 10 9 7 5
19 21 18 18 21 19 15 16 19 24 28 25 26 26 23 22 24 22 25 26 24 24 17 16 15 16 17 18 18 18 16 14 15 14 11 10 10 10 10 11 10 9 6
17 17 19 20 19 20 19 18 18 21 23 24 23 21 22 19 17 18 22 24 25 24 22 21 18 18 19 20 20 19 18 17 17 16 14 13 13 13 11 12 12 11 8
18 19 18 20 19 20 19 18 15 20 20 19 21 21 20 18 18 19 19 19 20 22 22 21 20 23 22 23 22 22 20 19 17 17 17 16 15 14 13 14 13 12 10
21 19 19 19 18 20 20 20 19 14 14 19 24 24 23 21 19 20 18 17 20 24 23 21 21 23 25 24 24 22 21 19 18 19 19 19 18 18 18 16 15 15 12
21 19 19 19 18 19 20 20 20 19 16 17 18 19 24 22 22 20 20 24 22 23 24 22 26 25 26 25 25 23 22 22 21 21 21 20 20 20 20 19 17 16 14
18 19 20 18 19 19 18 17 17 17 16 17 18 19 21 21 22 24 26 26 26 25 26 26 28 27 25 23 21 20 21 20 21 21 22 21 21 22 23 20 18 17 16
20 20 18 18 19 19 18 17 17 17 16 17 21 20 19 23 22 24 25 27 29 27 27 28 28 28 26 24 23 21 21 21 21 22 21 21 22 23 22 21 18 17 16
20 21 17 16 18 19 19 18 18 17 18 18 19 20 16 21 22 24 25 29 31 30 28 27 28 28 26 25 24 23 23 23 23 22 22 22 22 23 23 22 19 18 16
21 19 18 17 18 19 20 18 17 16 17 19 20 18 16 20 22 23 24 26 27 27 27 26 26 26 25 24 24 22 24 26 24 24 25 25 25 24 24 22 20 18 17
19 17 18 18 19 19 16 15 16 18 17 18 19 19 19 20 21 22 22 23 24 24 24 24 26 26 24 23 22 24 26 26 23 21 20 22 24 24 24 23 21 21 18
21 20 20 18 17 14 17 17 17 17 17 17 18 19 20 19 19 20 20 21 21 22 23 23 24 24 24 22 22 21 20 19 18 17 17 18 19 20 22 22 20 18 17
19 16 15 17 17 17 17 17 17 17 16 16 17 19 20 20 19 18 18 18 18 19 20 20 20 19 18 18 18 17 16 15 16 15 15 16 17 17 18 19 18 17 16
Wind_Direction
18 5 345 322 301 267 251 246 236 227 216 210 203 196 193 189 190 194 197 201 208 212 218 225 231 236 236 242 241 247 241 233 251 241 251 254 240 231 230 229 228 233 239
11 358 341 326 302 262 240 225 213 208 202 202 197 195 188 184 184 192 200 201 203 205 218 231 236 237 235 236 234 240 242 238 240 242 228 228 230 229 229 230 228 229 243
357 353 341 312 285 265 241 215 192 184 182 179 179 179 179 181 181 186 194 198 202 211 223 227 231 227 222 228 232 243 246 244 241 237 225 234 235 227 221 221 223 234 241
348 339 331 314 271 235 207 194 183 177 176 175 177 179 180 178 180 185 187 196 196 206 219 228 230 218 229 237 246 249 251 251 247 237 228 232 237 237 225 221 220 231 236
347 337 329 311 285 252 231 216 203 194 189 184 180 179 177 177 181 188 189 190 201 257 258 245 230 233 244 250 246 245 246 246 242 235 225 219 223 221 219 223 219 231 241
341 339 330 307 283 261 238 222 209 200 193 194 190 192 183 184 188 191 196 195 198 201 210 218 222 227 229 236 242 242 247 245 243 238 240 225 238 228 218 207 202 198 231
334 334 335 320 282 259 248 236 224 213 204 199 196 196 191 190 191 196 200 203 205 218 215 219 211 210 213 215 220 223 226 241 241 238 234 232 229 223 214 204 206 203 221
333 331 333 327 295 259 238 228 219 212 209 207 204 203 205 201 197 199 202 210 212 213 212 215 212 210 208 208 214 212 215 225 230 237 236 240 236 241 219 216 205 203 219
341 334 330 326 306 271 243 236 227 217 213 211 214 211 212 208 200 198 196 203 212 219 217 210 210 210 211 210 209 210 206 200 172 164 185 202 207 203 199 189 181 174 219
340 337 329 326 311 280 255 240 231 223 222 214 216 218 219 214 206 200 204 203 209 211 217 216 211 212 211 200 213 209 207 205 193 182 173 166 161 172 190 195 200 193 182
332 336 334 329 316 292 266 244 232 224 219 215 218 216 216 214 211 205 212 211 215 216 213 212 213 210 207 196 215 214 215 215 203 196 190 187 190 195 210 215 210 215 207
332 324 335 329 320 303 269 247 233 224 214 212 210 209 220 223 218 212 211 223 225 225 221 216 219 210 200 194 205 209 199 204 203 202 203 205 210 209 211 205 191 192 201
335 327 326 332 321 305 273 246 223 218 214 207 202 207 221 226 225 221 218 219 228 230 223 214 206 204 199 200 206 210 188 202 200 201 205 207 215 214 211 201 191 189 199
323 328 325 325 326 308 277 248 233 214 207 204 203 209 221 226 230 222 218 217 220 224 210 204 202 204 202 201 200 201 208 213 212 217 215 211 211 207 207 210 207 211 227
323 319 317 321 317 316 287 261 243 237 224 210 215 218 214 222 233 230 222 218 213 220 209 199 198 201 203 204 205 207 211 215 216 224 220 213 211 211 212 211 212 211 212
319 320 314 312 313 305 299 281 263 255 246 237 240 239 235 246 246 232 227 228 224 216 201 202 203 207 208 207 207 208 214 219 224 226 223 222 219 214 211 214 219 221 222
299 304 305 306 309 303 289 276 263 268 243 238 234 234 238 242 228 221 216 217 215 202 203 203 208 212 214 218 218 219 219 223 229 226 225 226 226 224 215 216 220 225 232
295 297 294 295 295 299 295 274 266 250 230 230 235 230 232 232 223 216 212 207 206 206 204 205 209 219 223 225 226 226 227 228 227 228 228 228 227 224 221 225 226 227 230
292 288 288 289 292 293 297 286 265 250 244 243 242 237 231 226 223 219 209 206 201 202 206 209 217 223 229 231 234 232 233 233 232 229 229 229 227 224 227 232 236 237 236
292 287 284 294 295 290 288 291 270 252 244 239 228 232 234 216 212 212 210 210 209 210 210 211 219 226 232 235 234 233 233 232 231 230 230 230 229 228 229 233 235 235 227
287 284 277 292 292 286 284 286 286 258 245 243 241 240 239 218 210 209 210 209 212 215 219 221 224 230 234 237 236 235 232 231 232 233 232 232 231 230 231 233 241 239 239
283 283 272 285 285 283 283 281 280 276 253 247 249 246 230 216 222 219 216 217 221 226 233 232 231 233 236 237 232 232 233 234 235 236 237 234 233 236 233 230 237 234 233
282 276 278 283 284 280 283 281 278 282 265 249 251 245 230 218 221 226 225 226 228 231 234 235 234 232 233 235 235 233 238 239 240 246 240 237 237 235 231 230 233 226 227
285 277 275 274 273 272 271 282 284 282 280 260 247 242 236 233 229 232 236 235 233 236 237 236 233 233 235 233 232 234 238 240 245 248 243 239 237 233 233 231 234 229 230
285 280 276 274 272 272 285 281 273 272 272 269 253 244 245 244 241 238 239 238 237 237 237 237 234 234 235 238 239 238 239 241 239 236 232 232 232 231 228 232 223 221 222
286 283 285 291 286 278 272 270 271 269 267 268 259 254 249 245 245 242 237 236 235 235 236 236 236 236 233 230 230 230 227 223 224 223 221 221 221 220 219 215 212 213 216